SITRO-AIS 5 (KATYS)

Last updated on Thu Nov 21 2024 00:03:40 GMT+0000 (Coordinated Universal Time)

1 57176U 23091L 24325.54845531 .00014967 00000+0 83605-3 0 9993 2 57176 97.5910 16.6984 0015048 309.3441 50.6456 15.13517820 77109
UTC large
Height (km)
Speed (km/s)
/
Latitude / Longitude
Inclination (degrees)
Orbital Period (minutes)
Azimuth
Elevation
Range (km)
Doppler Factor

Next 0 passes for location: London (51.5072 / 0.1276)

Sorry there are no passes over London.